EZY476H EGBB-EGPE

Flight info

Callsign EZY476H
Flight time 0h 53m
Altitude 28000
Route LUVUM DCT TNT N57 POL UN601 RIBEL DCT ERSON/N0377F250 N560 NESDI DCT GUSSI
Aircraft A320/M-SDE3FGHIRWY/LB1

Departure

Time 2026-04-30 17:41
Airport Birmingham Airport (EGBB)

Arrival

Time 2026-04-30 18:34
Airport Inverness Airport (EGPE)
Time Latitude Longitude Altitude Speed Heading
2026-04-30 17:39 52.50040 -1.59994 8935 ft 300 kts 357°
2026-04-30 17:41 52.67058 -1.71502 13779 ft 377 kts 338°
2026-04-30 17:42 52.72131 -1.73925 15114 ft 382 kts 357°
2026-04-30 17:42 52.80063 -1.72750 17209 ft 387 kts 11°
2026-04-30 17:43 52.85449 -1.71528 18540 ft 394 kts 10°
2026-04-30 17:44 52.93727 -1.69660 20224 ft 405 kts 10°
2026-04-30 17:44 53.02199 -1.67791 21871 ft 417 kts
2026-04-30 17:46 53.15952 -1.73513 24295 ft 439 kts 340°
2026-04-30 17:47 53.27528 -1.80731 26002 ft 450 kts 340°
2026-04-30 17:48 53.39414 -1.88176 27572 ft 461 kts 339°
2026-04-30 17:48 53.48415 -1.93854 28192 ft 451 kts 339°
2026-04-30 17:49 53.59643 -2.00939 28194 ft 440 kts 339°
2026-04-30 17:50 53.71085 -2.08212 28213 ft 440 kts 339°
2026-04-30 17:52 53.88128 -2.19696 28209 ft 440 kts 338°
2026-04-30 17:54 54.13495 -2.38075 28192 ft 441 kts 334°
2026-04-30 17:56 54.35815 -2.55516 28190 ft 441 kts 334°
2026-04-30 17:58 54.52578 -2.68745 28201 ft 441 kts 334°
2026-04-30 18:00 54.74838 -2.86465 28208 ft 441 kts 333°
2026-04-30 18:01 54.88747 -2.97649 28216 ft 441 kts 333°
2026-04-30 18:02 55.05449 -3.11198 28218 ft 440 kts 333°
2026-04-30 18:04 55.22043 -3.24776 28220 ft 438 kts 333°
2026-04-30 18:06 55.44084 -3.42992 28202 ft 438 kts 332°
2026-04-30 18:08 55.63359 -3.59148 28202 ft 439 kts 332°
2026-04-30 18:10 55.85108 -3.77546 28206 ft 439 kts 332°
2026-04-30 18:11 56.04370 -3.94045 28215 ft 438 kts 331°
2026-04-30 18:13 56.18081 -4.05922 28218 ft 438 kts 331°
2026-04-30 18:13 56.25372 -4.12273 27923 ft 433 kts 331°
2026-04-30 18:14 56.31640 -4.17732 27321 ft 427 kts 331°
2026-04-30 18:15 56.39591 -4.24696 26432 ft 418 kts 331°
2026-04-30 18:15 56.47810 -4.29666 24983 ft 417 kts 355°
2026-04-30 18:16 56.53555 -4.28945 24037 ft 415 kts
2026-04-30 18:16 56.59276 -4.27570 23007 ft 411 kts
2026-04-30 18:17 56.62105 -4.26891 22525 ft 408 kts
2026-04-30 18:17 56.64881 -4.26221 22045 ft 406 kts
2026-04-30 18:17 56.70459 -4.24868 21092 ft 401 kts
2026-04-30 18:18 56.73224 -4.24203 20632 ft 399 kts
2026-04-30 18:18 56.75988 -4.23540 20169 ft 398 kts
2026-04-30 18:18 56.78727 -4.22881 19716 ft 396 kts
2026-04-30 18:18 56.81459 -4.22219 19261 ft 395 kts
2026-04-30 18:19 56.84152 -4.21565 18815 ft 393 kts
2026-04-30 18:19 56.86862 -4.20900 18353 ft 392 kts
2026-04-30 18:19 56.89565 -4.20239 17888 ft 387 kts
2026-04-30 18:19 56.92175 -4.19599 17455 ft 377 kts
2026-04-30 18:20 56.94758 -4.18963 17029 ft 372 kts
2026-04-30 18:20 56.97316 -4.18329 16621 ft 370 kts
2026-04-30 18:20 56.99873 -4.17696 16202 ft 369 kts
2026-04-30 18:20 57.02387 -4.17079 15795 ft 368 kts
2026-04-30 18:21 57.04918 -4.16460 15382 ft 366 kts
2026-04-30 18:21 57.07448 -4.15840 14968 ft 366 kts
2026-04-30 18:21 57.09975 -4.15221 14555 ft 365 kts
2026-04-30 18:21 57.12507 -4.14598 14141 ft 365 kts
2026-04-30 18:22 57.15027 -4.13971 13694 ft 364 kts
2026-04-30 18:22 57.19987 -4.12729 12837 ft 359 kts
2026-04-30 18:22 57.22431 -4.12118 12431 ft 356 kts
2026-04-30 18:23 57.24884 -4.11507 12005 ft 353 kts
2026-04-30 18:23 57.27310 -4.10904 11576 ft 347 kts
2026-04-30 18:23 57.29650 -4.10321 11176 ft 338 kts
2026-04-30 18:23 57.31953 -4.09746 10757 ft 330 kts
2026-04-30 18:24 57.36421 -4.08628 10074 ft 321 kts
2026-04-30 18:24 57.38614 -4.08075 9810 ft 316 kts
2026-04-30 18:24 57.40792 -4.07526 9445 ft 314 kts
2026-04-30 18:25 57.42948 -4.06982 9098 ft 311 kts
2026-04-30 18:25 57.46475 -4.06087 8377 ft 304 kts
2026-04-30 18:25 57.48565 -4.05555 7818 ft 301 kts
2026-04-30 18:26 57.52706 -4.04504 7037 ft 296 kts
2026-04-30 18:26 57.54687 -4.03703 6683 ft 294 kts 20°
2026-04-30 18:26 57.56554 -4.02206 6298 ft 291 kts 25°
2026-04-30 18:27 57.60228 -3.99130 5499 ft 287 kts 24°
2026-04-30 18:27 57.62044 -3.97614 5107 ft 285 kts 24°
2026-04-30 18:28 57.65594 -3.94648 4599 ft 269 kts 24°
2026-04-30 18:28 57.67253 -3.93262 4410 ft 259 kts 24°
2026-04-30 18:28 57.70131 -3.89850 4060 ft 237 kts 58°
2026-04-30 18:29 57.70721 -3.87075 3880 ft 227 kts 87°
2026-04-30 18:29 57.68768 -3.80329 3456 ft 189 kts 160°
2026-04-30 18:30 57.66294 -3.79992 3291 ft 181 kts 198°
2026-04-30 18:30 57.64315 -3.82752 2907 ft 182 kts 226°
2026-04-30 18:31 57.63494 -3.84557 2676 ft 181 kts 226°
2026-04-30 18:31 57.61907 -3.88044 2196 ft 172 kts 226°
2026-04-30 18:32 57.60415 -3.91308 1742 ft 158 kts 225°
2026-04-30 18:32 57.59723 -3.92821 1516 ft 147 kts 226°
2026-04-30 18:32 57.58490 -3.95505 1186 ft 131 kts 226°
2026-04-30 18:33 57.57900 -3.96793 983 ft 129 kts 227°
2026-04-30 18:33 57.56722 -3.99368 662 ft 133 kts 227°
2026-04-30 18:33 57.56122 -4.00676 466 ft 132 kts 227°
2026-04-30 18:34 57.55519 -4.01990 290 ft 134 kts 228°
2026-04-30 18:34 57.54331 -4.04576 36 ft 114 kts 229°
2026-04-30 18:34 57.54004 -4.05288 38 ft 41 kts 230°
2026-04-30 18:35 57.53859 -4.05605 40 ft 30 kts 229°
2026-04-30 18:35 57.53757 -4.05827 40 ft 16 kts 229°
2026-04-30 18:35 57.53723 -4.06006 40 ft 16 kts 297°
2026-04-30 18:36 57.53873 -4.06172 36 ft 12 kts
2026-04-30 18:36 57.53922 -4.06173 36 ft 5 kts 328°
2026-04-30 18:36 57.53929 -4.06264 36 ft 0 kts 275°